Previsão horária em Alovo

Hoje, 22 Janeiro, Sexta-feira

Tempo Temperatura Precipitação Vento Pressão Humidade
00:00 -18°C° 0.4 mm 5 m/s 736 mmHg 94%
01:00 -17°C° 0.1 mm 4 m/s 736 mmHg 94%
02:00 -17°C° 0.1 mm 4 m/s 736 mmHg 94%
03:00 -17°C° 0.1 mm 3 m/s 736 mmHg 94%
04:00 -17°C° 0 mm 3 m/s 736 mmHg 95%
05:00 -17°C° 0 mm 2 m/s 736 mmHg 96%
06:00 -17°C° 0 mm 2 m/s 736 mmHg 96%
07:00 -17°C° 0 mm 2 m/s 736 mmHg 96%
08:00 -14°C° 0 mm 1 m/s 736 mmHg 96%
09:00 -14°C° 0 mm 1 m/s 736 mmHg 96%
10:00 -13°C° 0 mm 1 m/s 737 mmHg 95%
11:00 -11°C° 0 mm 1 m/s 737 mmHg 93%
12:00 -10°C° 0 mm 1 m/s 737 mmHg 92%
13:00 -9°C° 0 mm 1 m/s 737 mmHg 93%
14:00 -9°C° 0 mm 1 m/s 737 mmHg 93%
15:00 -8°C° 0 mm 1 m/s 737 mmHg 94%
16:00 -8°C° 0.2 mm 1 m/s 737 mmHg 95%
17:00 -8°C° 0.2 mm 1 m/s 737 mmHg 95%
18:00 -8°C° 0.2 mm 1 m/s 737 mmHg 96%
19:00 -8°C° 0.3 mm 2 m/s 738 mmHg 96%
20:00 -8°C° 0.3 mm 2 m/s 738 mmHg 96%
21:00 -7°C° 0.3 mm 2 m/s 738 mmHg 96%
22:00 -7°C° 0.3 mm 2 m/s 738 mmHg 96%
23:00 -6°C° 0.3 mm 2 m/s 738 mmHg 96%

Amanhã, 23 Janeiro, Sábado

Tempo Temperatura Precipitação Vento Pressão Humidade
00:00 -6°C° 0.3 mm 2 m/s 739 mmHg 96%
01:00 -5°C° 0.1 mm 2 m/s 739 mmHg 97%
02:00 -4°C° 0.1 mm 2 m/s 739 mmHg 97%
03:00 -3°C° 0.1 mm 2 m/s 739 mmHg 97%
04:00 -4°C° 0.1 mm 3 m/s 739 mmHg 97%
05:00 -2°C° 0.1 mm 3 m/s 739 mmHg 97%
06:00 -2°C° 0.1 mm 3 m/s 739 mmHg 97%
07:00 -1°C° 0 mm 3 m/s 739 mmHg 97%
08:00 -2°C° 0 mm 4 m/s 739 mmHg 97%
09:00 -2°C° 0 mm 4 m/s 739 mmHg 97%
10:00 -2°C° 0 mm 4 m/s 739 mmHg 98%
11:00 -1°C° 0 mm 5 m/s 739 mmHg 98%
12:00 -1°C° 0 mm 5 m/s 739 mmHg 99%
13:00 -1°C° 0 mm 5 m/s 738 mmHg 99%
14:00 -1°C° 0 mm 5 m/s 738 mmHg 99%
15:00 -1°C° 0 mm 5 m/s 738 mmHg 99%
16:00 -1°C° 0 mm 4 m/s 738 mmHg 98%
17:00 -1°C° 0 mm 4 m/s 739 mmHg 97%
18:00 -1°C° 0 mm 4 m/s 739 mmHg 97%
19:00 -1°C° 0 mm 4 m/s 739 mmHg 97%
20:00 -1°C° 0 mm 4 m/s 739 mmHg 96%
21:00 -1°C° 0 mm 4 m/s 739 mmHg 96%
22:00 -1°C° 0 mm 4 m/s 740 mmHg 96%
23:00 -1°C° 0 mm 4 m/s 740 mmHg 97%

Depois de amanhã, 24 Janeiro, Domingo

Tempo Temperatura Precipitação Vento Pressão Humidade
00:00 0°C° 0 mm 3 m/s 740 mmHg 97%
01:00 -1°C° 0 mm 4 m/s 740 mmHg 97%
02:00 -1°C° 0 mm 4 m/s 740 mmHg 97%
03:00 -1°C° 0 mm 4 m/s 740 mmHg 97%
04:00 -1°C° 0 mm 4 m/s 740 mmHg 97%
05:00 -1°C° 0 mm 4 m/s 740 mmHg 97%
06:00 0°C° 0 mm 3 m/s 740 mmHg 97%
07:00 -1°C° 0 mm 4 m/s 740 mmHg 97%
08:00 -1°C° 0 mm 4 m/s 741 mmHg 97%
09:00 -2°C° 0 mm 4 m/s 741 mmHg 97%
10:00 -1°C° 0 mm 4 m/s 741 mmHg 97%
11:00 -1°C° 0 mm 4 m/s 741 mmHg 98%
12:00 -1°C° 0 mm 4 m/s 741 mmHg 98%
13:00 -1°C° 0.1 mm 4 m/s 741 mmHg 97%
14:00 -1°C° 0.1 mm 5 m/s 741 mmHg 95%
15:00 -1°C° 0.1 mm 5 m/s 741 mmHg 94%
16:00 -2°C° 0 mm 5 m/s 741 mmHg 93%
17:00 -2°C° 0 mm 4 m/s 741 mmHg 91%
18:00 -2°C° 0 mm 4 m/s 742 mmHg 90%
19:00 -2°C° 0 mm 5 m/s 742 mmHg 90%
20:00 -2°C° 0 mm 5 m/s 742 mmHg 90%
21:00 -2°C° 0 mm 5 m/s 742 mmHg 90%
22:00 -2°C° 0 mm 5 m/s 742 mmHg 90%
23:00 -4°C° 0 mm 5 m/s 742 mmHg 91%

25 Janeiro, Segunda-feira

Tempo Temperatura Precipitação Vento Pressão Humidade
00:00 -4°C° 0 mm 5 m/s 742 mmHg 91%
01:00 -5°C° 0 mm 5 m/s 743 mmHg 92%
02:00 -5°C° 0 mm 4 m/s 743 mmHg 93%
03:00 -7°C° 0 mm 4 m/s 743 mmHg 94%
04:00 -7°C° 0 mm 4 m/s 743 mmHg 95%
05:00 -7°C° 0 mm 4 m/s 743 mmHg 95%
06:00 -7°C° 0 mm 4 m/s 743 mmHg 96%
07:00 -7°C° 0 mm 4 m/s 743 mmHg 95%
08:00 -7°C° 0 mm 4 m/s 743 mmHg 95%
09:00 -7°C° 0 mm 4 m/s 743 mmHg 95%
10:00 -6°C° 0 mm 5 m/s 743 mmHg 94%
11:00 -6°C° 0 mm 5 m/s 743 mmHg 94%
12:00 -5°C° 0 mm 5 m/s 742 mmHg 93%
13:00 -6°C° 0 mm 5 m/s 742 mmHg 93%
14:00 -6°C° 0 mm 5 m/s 742 mmHg 93%
15:00 -6°C° 0 mm 5 m/s 742 mmHg 94%
16:00 -6°C° 0 mm 5 m/s 742 mmHg 94%
17:00 -6°C° 0 mm 5 m/s 742 mmHg 93%
18:00 -7°C° 0 mm 5 m/s 742 mmHg 93%
19:00 -7°C° 0 mm 5 m/s 742 mmHg 94%
20:00 -6°C° 0 mm 5 m/s 742 mmHg 94%
21:00 -6°C° 0 mm 5 m/s 742 mmHg 95%
22:00 -6°C° 0 mm 5 m/s 742 mmHg 94%
23:00 -5°C° 0 mm 5 m/s 742 mmHg 94%

26 Janeiro, Terça-feira

Tempo Temperatura Precipitação Vento Pressão Humidade
00:00 -4°C° 0 mm 4 m/s 742 mmHg 93%
01:00 -4°C° 0 mm 4 m/s 742 mmHg 93%
02:00 -4°C° 0 mm 4 m/s 742 mmHg 93%
03:00 -5°C° 0 mm 4 m/s 742 mmHg 93%
04:00 -5°C° 0 mm 4 m/s 742 mmHg 93%
05:00 -5°C° 0 mm 4 m/s 742 mmHg 93%
06:00 -5°C° 0 mm 4 m/s 741 mmHg 93%
07:00 -5°C° 0 mm 4 m/s 741 mmHg 93%
08:00 -6°C° 0 mm 5 m/s 741 mmHg 93%
09:00 -6°C° 0 mm 5 m/s 741 mmHg 93%
10:00 -6°C° 0 mm 5 m/s 741 mmHg 93%
11:00 -6°C° 0 mm 5 m/s 741 mmHg 93%
12:00 -6°C° 0 mm 6 m/s 741 mmHg 93%
13:00 -6°C° 0 mm 6 m/s 740 mmHg 91%
14:00 -6°C° 0 mm 5 m/s 740 mmHg 89%
15:00 -6°C° 0 mm 5 m/s 740 mmHg 88%
16:00 -6°C° 0 mm 6 m/s 740 mmHg 89%
17:00 -8°C° 0 mm 6 m/s 739 mmHg 90%
18:00 -8°C° 0 mm 6 m/s 739 mmHg 91%
19:00 -8°C° 0 mm 7 m/s 739 mmHg 91%
20:00 -8°C° 0 mm 7 m/s 739 mmHg 91%
21:00 -7°C° 0 mm 7 m/s 739 mmHg 92%
22:00 -7°C° 0.1 mm 7 m/s 738 mmHg 92%
23:00 -7°C° 0.1 mm 7 m/s 738 mmHg 92%

27 Janeiro, Quarta-feira

Tempo Temperatura Precipitação Vento Pressão Humidade
00:00 -6°C° 0.1 mm 7 m/s 738 mmHg 92%
01:00 -6°C° 0.4 mm 7 m/s 738 mmHg 93%
02:00 -6°C° 0.4 mm 7 m/s 738 mmHg 93%
03:00 -5°C° 0.4 mm 6 m/s 738 mmHg 93%
04:00 -5°C° 0.4 mm 6 m/s 738 mmHg 93%
05:00 -5°C° 0.4 mm 6 m/s 738 mmHg 93%
06:00 -5°C° 0.4 mm 6 m/s 737 mmHg 93%
07:00 -5°C° 0 mm 6 m/s 738 mmHg 93%
08:00 -4°C° 0 mm 6 m/s 738 mmHg 93%
09:00 -4°C° 0 mm 6 m/s 738 mmHg 92%
10:00 -4°C° 0 mm 6 m/s 738 mmHg 93%
11:00 -3°C° 0 mm 6 m/s 738 mmHg 93%
12:00 -3°C° 0 mm 6 m/s 738 mmHg 94%
13:00 -2°C° 0 mm 5 m/s 738 mmHg 94%
14:00 -2°C° 0 mm 5 m/s 738 mmHg 93%
15:00 -2°C° 0 mm 5 m/s 738 mmHg 93%
16:00 -4°C° 0.2 mm 5 m/s 738 mmHg 94%
17:00 -4°C° 0.2 mm 5 m/s 737 mmHg 95%
18:00 -4°C° 0.2 mm 4 m/s 737 mmHg 96%
19:00 -4°C° 0.1 mm 4 m/s 737 mmHg 96%
20:00 -5°C° 0.1 mm 5 m/s 737 mmHg 95%
21:00 -5°C° 0.1 mm 5 m/s 737 mmHg 95%
22:00 -5°C° 0.3 mm 4 m/s 737 mmHg 95%
23:00 -5°C° 0.3 mm 4 m/s 737 mmHg 95%
Mostrar mais

Necessitamos do seu Consentimento

A Meteoprog e os seus Fornecedores de Serviços podem armazenar e aceder a dados pessoais como cookies, identificadores do dispositivo ou outras tecnologias semelhantes existentes no seu dispositivo e processar estes dados para personalizar conteúdos e anúncios, assim como funcionalidades nas redes sociais e análise de tráfego.

  • Armazenar e/ou aceder a informações no seu dispositivo

    Os cookies, identificadores do dispositivo ou outras informações podem ser armazenados ou acedidos no seu dispositivo, para os fins acima indicados.

  • Anúncios e conteúdos personalizados, medição de anúncios e conteúdos, dados sobre o público-alvo e desenvolvimento de produtos

    Os anúncios e os conteúdos podem ser personalizados com base num perfil. Podem ser adicionados dados adicionais para uma maior personalização dos anúncios e dos conteúdos. A eficácia dos anúncios e dos conteúdos pode ser medida. Podem ser obtidas informações sobre o público que visualizou os anúncios e os conteúdos. Estes dados podem ser usados para desenvolver ou melhorar sistemas, softwares ou a experiência do utilizador.

Ao clicar em "Eu concordo”, permitirá o uso de cookies, identificadores do dispositivo e web beacons mencionados ou outras tecnologias semelhantes. As configurações do navegador do seu dispositivo podem ser alteradas.

Para certos fins, podem ser invocados interesses legítimos ao invés de consentimento. Pode ler mais informação sobre este assunto na nossa Política de Privacidade e Cookies.